Flag for Sweden Weather past 2 weeks in Norrköping, Sweden

Now
63 °F

Scattered clouds.


Feels Like: 63 °F
Forecast: 44 / 57 °F
Wind: 12 mph from West

Location: Norrkoping Airport

Current Time: Sep 3, 2015 at 11:49:44 AM

Latest Report: Sep 3, 2015 at 11:20 AM


Visibility: N/A

Pressure: 29.92 "Hg

Humidity: 68%

Dew point: 52 °F

Location of NorrköpingLocation

Historic Weather in Norrköping — Graph

°F

Norrköping temperature yesterday

Maximum temperature yesterday: 66 °F (at 2:20 PM)
Minimum temperature yesterday: 55 °F (at 10:20 PM)
Average temperature yesterday: 60 °F

Past Weeks' High & Low Weather Summary

 TemperatureHumidityPressure
High77 °F (Aug 24, 1:50 PM)100% (Aug 20, 12:20 AM)30.42 "Hg (Aug 20, 12:20 AM)
Low41 °F (Aug 20, 5:20 AM)36% (Aug 22, 2:20 PM)29.59 "Hg (Sep 2, 7:20 AM)
Average61 °F78%30.02 "Hg
* Reported Aug 19 10:20 AM — Sep 3 10:20 AM, Norrköping, Weather by CustomWeather, © 2015

Note: Actual official high and low records may vary slightly from our data, if they occured in-between our weather recording intervals... More about our weather records

Advertising

Norrköping weather history for previous 24 hours

 ConditionsComfort  
Time TempWeatherWind HumidityBarometerVisibility
10:20 AM
Thu, Sep 3
61 °FScattered clouds.8 mph77%29.89 "HgN/A
9:50 AM59 °FPassing clouds.8 mph82%29.89 "HgN/A
9:20 AM57 °FPassing clouds.7 mph88%29.89 "HgN/A
8:50 AM57 °FSunny.8 mph88%29.89 "Hg10 mi
8:20 AM55 °FSunny.8 mph88%29.89 "Hg10 mi
7:50 AM54 °FSunny.6 mph94%29.86 "Hg10 mi
7:20 AM52 °FSunny.3 mph100%29.86 "Hg10 mi
6:20 AM50 °FCool.3 mph100%29.86 "HgN/A
5:20 AM50 °FCool.3 mph100%29.86 "HgN/A
4:50 AM52 °FCool.3 mph94%29.86 "HgN/A
4:20 AM52 °FCool.3 mph94%29.86 "HgN/A
3:50 AM52 °FCool.5 mph94%29.86 "HgN/A
3:20 AM52 °FCool.5 mph94%29.86 "HgN/A
2:50 AM52 °FCool.6 mph100%29.83 "HgN/A
2:20 AM52 °FCool.6 mph94%29.83 "HgN/A
1:50 AM54 °FCool.7 mph94%29.83 "HgN/A
1:20 AM54 °FCool.7 mph94%29.83 "HgN/A
12:50 AM54 °FPassing clouds.6 mph94%29.83 "HgN/A
12:20 AM54 °FCool.7 mph94%29.83 "HgN/A
11:50 PM
Wed, Sep 2
55 °FPassing clouds.7 mph88%29.80 "HgN/A
11:20 PM55 °FCool.6 mph88%29.80 "HgN/A
10:50 PM55 °FPassing clouds.6 mph82%29.80 "HgN/A
10:20 PM55 °FPassing clouds.3 mph82%29.80 "HgN/A
9:50 PM57 °FClear.5 mph77%29.80 "Hg10 mi
9:20 PM57 °FClear.6 mph82%29.80 "Hg10 mi
8:50 PM59 °FSunny.5 mph77%29.77 "Hg10 mi
8:20 PM59 °FSunny.5 mph77%29.77 "Hg10 mi
7:50 PM61 °FSunny.6 mph72%29.77 "Hg10 mi
7:20 PM61 °FSunny.8 mph72%29.74 "Hg10 mi
6:50 PM64 °FPassing clouds.8 mph60%29.74 "HgN/A
6:20 PM66 °FPassing clouds.10 mph56%29.74 "HgN/A
5:20 PM64 °FPassing clouds.13 mph64%29.74 "HgN/A
4:50 PM66 °FPassing clouds.14 mph60%29.71 "HgN/A
4:20 PM66 °FScattered clouds.16 mph60%29.71 "HgN/A
3:50 PM66 °FPartly sunny.16 mph60%29.71 "HgN/A
3:20 PM66 °FBroken clouds.16 mph64%29.71 "HgN/A
2:50 PM66 °FBroken clouds.16 mph64%29.71 "HgN/A
2:20 PM66 °FPartly sunny.18 mph64%29.71 "HgN/A
1:50 PM64 °FScattered clouds.18 mph73%29.71 "HgN/A
1:20 PM64 °FBroken clouds.18 mph73%29.68 "HgN/A
12:50 PM64 °FBroken clouds.17 mph78%29.68 "HgN/A
12:20 PM63 °FPartly sunny.20 mph83%29.68 "HgN/A
11:50 AM63 °FBroken clouds.20 mph88%29.68 "HgN/A
11:20 AM61 °FBroken clouds.17 mph88%29.65 "HgN/A
Weather by CustomWeather, © 2015

See weather overviewHow to use our weather pages